FW5704 Weather Reports


Display with metric or nautical units.
time (UTC)temp
F
wind
direction
speed
MPH
gust
MPH
rain 1hr
in
rain 24hr
in
rain mn
in
humidity
%
barometer
mb
20260509033534 52 291 0.0 2.0 0.00 0.00 0.00 88 1015.2
20260509033047 52 0 0.0 0.0 0.00 0.00 0.00 87 1015.2
20260509032533 52 0 0.0 0.0 0.00 0.00 0.00 88 1015.3
20260509032034 52 0 0.0 0.0 0.00 0.00 0.00 88 1015.5
20260509031556 52 0 0.0 1.0 0.00 0.00 0.00 87 1015.4
20260509031037 52 0 0.0 1.0 0.00 0.00 0.00 87 1015.5
20260509030537 52 291 0.0 1.0 0.00 0.00 0.00 87 1015.5
20260509030052 52 0 0.0 1.0 0.00 0.00 0.00 86 1015.4
20260509025533 53 0 0.0 1.0 0.00 0.00 0.00 86 1015.3
20260509025033 53 291 0.0 1.0 0.00 0.00 0.00 86 1015.3
20260509024545 53 0 0.0 0.0 0.00 0.00 0.00 85 1015.5
20260509024033 53 0 0.0 1.0 0.00 0.00 0.00 86 1015.3
20260509023533 53 0 0.0 1.0 0.00 0.00 0.00 85 1015.3
20260509023055 54 0 0.0 1.0 0.00 0.00 0.00 85 1015.4
20260509022533 54 0 0.0 0.0 0.00 0.00 0.00 84 1015.3
20260509022033 54 0 0.0 1.0 0.00 0.00 0.00 83 1015.2
20260509021546 54 0 0.0 1.0 0.00 0.00 0.00 84 1015.2
20260509021035 54 0 0.0 1.0 0.00 0.00 0.00 83 1015.3
20260509020533 55 0 0.0 1.0 0.00 0.00 0.00 83 1015.0
20260509020050 55 0 0.0 1.0 0.00 0.00 0.00 83 1015.0
20260509015534 55 0 0.0 1.0 0.00 0.00 0.00 82 1015.0
20260509015036 56 0 0.0 2.0 0.00 0.00 0.00 82 1014.7
20260509014543 56 0 0.0 2.0 0.00 0.00 0.00 81 1014.8
20260509014037 56 0 0.0 2.0 0.00 0.00 0.00 80 1014.8
20260509013533 57 0 0.0 1.0 0.00 0.00 0.00 80 1015.0
20260509013108 57 0 0.0 1.0 0.00 0.00 0.00 79 1015.1
20260509012533 57 0 0.0 1.0 0.00 0.00 0.00 78 1015.0
20260509012033 57 0 0.0 1.0 0.00 0.00 0.00 77 1014.8
20260509011548 57 0 0.0 2.0 0.00 0.00 0.00 77 1014.8
20260509011032 57 0 0.0 2.0 0.00 0.00 0.00 77 1014.7
20260509010533 57 289 1.0 2.0 0.00 0.00 0.00 77 1014.9
20260509010048 57 288 0.0 2.0 0.00 0.00 0.00 77 1014.8
20260509005533 58 0 0.0 0.0 0.00 0.00 0.00 77 1014.9
20260509005033 58 0 0.0 0.0 0.00 0.00 0.00 76 1014.6
20260509004553 58 0 0.0 0.0 0.00 0.00 0.00 76 1014.9
20260509004033 58 0 0.0 2.0 0.00 0.00 0.00 76 1014.8
20260509003534 59 0 0.0 2.0 0.00 0.00 0.00 74 1014.6
20260509003043 59 276 0.0 2.0 0.00 0.00 0.00 74 1014.5
20260509002534 59 0 0.0 3.0 0.00 0.00 0.00 73 1014.6
20260509002033 59 279 0.0 3.0 0.00 0.00 0.00 71 1014.6
20260509001545 60 267 1.0 4.0 0.00 0.00 0.00 71 1014.7
20260509001035 60 0 0.0 4.0 0.00 0.00 0.00 70 1014.4
20260509000533 60 0 0.0 4.0 0.00 0.00 0.00 69 1014.5
20260509000041 60 286 1.0 3.0 0.00 0.00 0.00 69 1014.5
20260508235533 61 290 0.0 3.0 0.00 0.00 0.00 67 1014.5
20260508235033 61 197 0.0 4.0 0.00 0.00 0.00 66 1014.4
20260508234545 61 277 2.0 4.0 0.00 0.00 0.00 65 1014.2
20260508234037 61 265 2.0 7.0 0.00 0.00 0.00 65 1014.3
20260508233537 61 250 1.0 7.0 0.00 0.00 0.00 66 1014.3
20260508233044 62 256 1.0 7.0 0.00 0.00 0.00 66 1014.3
20260508232536 62 259 1.0 4.0 0.00 0.00 0.00 67 1014.3
20260508232035 62 253 1.0 3.0 0.00 0.00 0.00 67 1014.3
20260508231550 62 0 0.0 3.0 0.00 0.00 0.00 66 1014.2
20260508231036 62 281 1.0 3.0 0.00 0.00 0.00 65 1014.2
20260508230533 63 278 0.0 4.0 0.00 0.00 0.00 66 1014.2
20260508230055 63 261 1.0 4.0 0.00 0.00 0.00 64 1014.3
20260508225533 63 258 1.0 4.0 0.00 0.00 0.00 65 1014.2
20260508225033 63 321 0.0 4.0 0.00 0.00 0.00 64 1014.2
20260508224604 63 266 0.0 6.0 0.00 0.00 0.00 64 1014.1
20260508224034 63 0 1.0 6.0 0.00 0.00 0.00 63 1014.1
20260508223540 64 0 2.0 6.0 0.00 0.00 0.00 64 1014.0
20260508223046 64 254 1.0 4.0 0.00 0.00 0.00 63 1014.1
20260508222535 64 0 0.0 5.0 0.00 0.00 0.00 63 1014.1
20260508222033 64 275 1.0 8.0 0.00 0.00 0.00 63 1014.0
20260508221557 64 0 1.0 8.0 0.00 0.00 0.00 62 1014.2
20260508221034 64 261 2.0 8.0 0.00 0.00 0.00 62 1014.2
20260508220533 64 0 1.0 8.0 0.00 0.00 0.00 61 1014.1
20260508220046 65 268 0.0 6.0 0.00 0.00 0.00 61 1014.1
20260508215534 65 0 1.0 6.0 0.00 0.00 0.00 61 1014.0
20260508215033 65 265 2.0 6.0 0.00 0.00 0.00 60 1014.0
20260508214541 65 0 0.0 4.0 0.00 0.00 0.00 60 1013.8
20260508214037 65 268 1.0 7.0 0.00 0.00 0.00 59 1014.0
20260508213537 65 254 0.0 7.0 0.00 0.00 0.00 59 1014.1
20260508213107 66 258 1.0 7.0 0.00 0.00 0.00 58 1014.0
20260508212533 66 268 1.0 7.0 0.00 0.00 0.00 56 1014.1
20260508212033 66 286 2.0 7.0 0.00 0.00 0.00 54 1014.0
20260508211549 67 271 2.0 7.0 0.00 0.00 0.00 55 1014.0
20260508211036 67 256 0.0 7.0 0.00 0.00 0.00 58 1014.0
20260508210536 67 267 1.0 7.0 0.00 0.00 0.00 58 1014.0
20260508210053 67 263 1.0 7.0 0.00 0.00 0.00 55 1014.0
20260508205535 67 263 3.0 7.0 0.00 0.00 0.00 53 1014.1
20260508205035 67 313 1.0 5.0 0.00 0.00 0.00 52 1013.9
20260508204557 67 307 0.0 8.0 0.00 0.00 0.00 52 1013.9
20260508204033 67 275 3.0 8.0 0.00 0.00 0.00 51 1014.0
20260508203533 67 245 1.0 7.0 0.00 0.00 0.00 52 1013.9
20260508203042 67 279 1.0 4.0 0.00 0.00 0.00 53 1014.0
20260508202534 67 10 1.0 6.0 0.00 0.00 0.00 52 1014.1
20260508202033 67 215 1.0 6.0 0.00 0.00 0.00 52 1014.2
20260508201543 68 252 0.0 6.0 0.00 0.00 0.00 54 1014.1
20260508201034 68 252 1.0 6.0 0.00 0.00 0.00 52 1014.2
20260508200534 67 0 2.0 5.0 0.00 0.00 0.00 53 1014.3
20260508200052 67 0 0.0 5.0 0.00 0.00 0.00 57 1014.4
20260508195535 68 264 1.0 11.0 0.00 0.00 0.00 53 1014.5
20260508195035 68 321 1.0 11.0 0.00 0.00 0.00 54 1014.4
20260508194545 68 251 2.0 7.0 0.00 0.00 0.00 50 1014.4
20260508194035 68 264 0.0 4.0 0.00 0.00 0.00 49 1014.4
20260508193535 68 0 1.0 7.0 0.00 0.00 0.00 51 1014.4
20260508193120 67 243 0.0 7.0 0.00 0.00 0.00 54 1014.4
20260508192536 68 262 2.0 7.0 0.00 0.00 0.00 50 1014.6
20260508192033 67 0 0.0 6.0 0.00 0.00 0.00 49 1014.7
20260508191542 67 252 1.0 6.0 0.00 0.00 0.00 49 1014.9
20260508191035 67 0 1.0 8.0 0.00 0.00 0.00 47 1015.0
20260508190533 68 288 1.0 8.0 0.00 0.00 0.00 48 1015.3
20260508190048 68 257 3.0 8.0 0.00 0.00 0.00 49 1015.5
20260508185534 69 257 1.0 5.0 0.00 0.00 0.00 49 1015.6
20260508185035 68 0 0.0 5.0 0.00 0.00 0.00 52 1015.7
20260508184602 67 38 0.0 4.0 0.00 0.00 0.00 48 1015.8
20260508184034 67 275 1.0 4.0 0.00 0.00 0.00 54 1015.7
20260508183536 67 0 1.0 3.0 0.00 0.00 0.00 48 1015.5
20260508183045 67 79 1.0 4.0 0.00 0.00 0.00 52 1015.8
20260508182536 67 80 0.0 7.0 0.00 0.00 0.00 54 1015.7
20260508182035 67 277 1.0 7.0 0.00 0.00 0.00 53 1015.8
20260508181543 67 259 1.0 7.0 0.00 0.00 0.00 47 1015.9
20260508181035 67 265 0.0 7.0 0.00 0.00 0.00 55 1016.0
20260508180535 67 252 0.0 8.0 0.00 0.00 0.00 52 1016.1
20260508180048 66 27 2.0 8.0 0.00 0.00 0.00 46 1016.1
20260508175533 67 270 0.0 4.0 0.00 0.19 0.00 47 1016.1
20260508175033 66 261 1.0 4.0 0.00 0.19 0.00 45 1016.1
20260508174603 66 100 1.0 7.0 0.00 0.19 0.00 49 1016.2
20260508174036 66 74 1.0 7.0 0.00 0.19 0.00 46 1016.1
20260508173534 66 250 1.0 7.0 0.00 0.19 0.00 46 1016.1
20260508173044 65 0 1.0 7.0 0.00 0.19 0.00 45 1016.3
20260508172536 66 252 1.0 11.0 0.00 0.19 0.00 47 1016.2
20260508172036 66 0 2.0 11.0 0.00 0.19 0.00 48 1016.2
20260508171607 66 280 0.0 9.0 0.00 0.19 0.00 56 1016.4
20260508171035 66 263 2.0 9.0 0.00 0.19 0.00 52 1016.6
20260508170535 65 244 0.0 6.0 0.00 0.19 0.00 63 1016.5
20260508170052 65 254 2.0 6.0 0.00 0.19 0.00 52 1016.6
20260508165535 65 105 0.0 4.0 0.00 0.21 0.00 52 1016.7
20260508165035 64 0 1.0 4.0 0.00 0.21 0.00 51 1017.0
20260508164548 64 269 1.0 6.0 0.00 0.21 0.00 51 1017.2
20260508164033 64 263 2.0 6.0 0.00 0.21 0.00 52 1017.0
20260508163535 64 248 1.0 8.0 0.00 0.21 0.00 52 1017.0
20260508163053 64 216 1.0 8.0 0.00 0.21 0.00 55 1017.2
20260508162534 63 257 3.0 8.0 0.00 0.21 0.00 53 1017.2
20260508162035 63 182 1.0 8.0 0.00 0.21 0.00 56 1017.2
20260508161551 63 88 2.0 8.0 0.00 0.21 0.00 64 1017.4
20260508161036 63 256 1.0 5.0 0.00 0.21 0.00 58 1017.7
20260508160538 62 261 1.0 5.0 0.00 0.21 0.00 59 1017.4
20260508160051 62 249 1.0 3.0 0.00 0.21 0.00 59 1017.6
20260508155535 62 256 0.0 6.0 0.00 0.22 0.00 59 1017.6
20260508155035 61 0 1.0 10.0 0.00 0.22 0.00 55 1017.6
20260508154544 61 258 2.0 10.0 0.00 0.22 0.00 56 1017.7
20260508154035 61 256 1.0 4.0 0.00 0.22 0.00 58 1017.5
20260508153540 61 254 0.0 4.0 0.00 0.22 0.00 63 1017.7
20260508153043 61 0 1.0 5.0 0.00 0.22 0.00 56 1017.8
20260508152537 61 259 0.0 5.0 0.00 0.22 0.00 61 1017.9
20260508152035 60 257 1.0 5.0 0.00 0.22 0.00 63 1017.9
20260508151553 60 262 1.0 4.0 0.00 0.22 0.00 62 1017.9
20260508151036 59 0 1.0 5.0 0.00 0.22 0.00 64 1017.9
20260508150535 59 0 1.0 6.0 0.00 0.22 0.00 65 1017.9
20260508150051 59 267 2.0 6.0 0.00 0.22 0.00 70 1017.8
20260508145533 58 256 1.0 6.0 0.00 0.24 0.00 66 1017.9
20260508145037 58 239 0.0 5.0 0.00 0.24 0.00 68 1017.9
20260508144545 58 257 1.0 5.0 0.00 0.24 0.00 66 1017.9
20260508144036 58 255 1.0 4.0 0.00 0.24 0.00 68 1018.0
20260508143536 57 255 1.0 4.0 0.00 0.24 0.00 67 1017.9
20260508143056 57 0 1.0 4.0 0.00 0.24 0.00 68 1017.9
20260508142534 56 249 1.0 4.0 0.00 0.24 0.00 69 1018.0
20260508142035 56 238 0.0 4.0 0.00 0.24 0.00 72 1018.1
20260508141551 55 270 0.0 2.0 0.00 0.24 0.00 75 1018.0
20260508141035 55 0 0.0 3.0 0.00 0.24 0.00 76 1017.8
20260508140533 54 271 0.0 3.0 0.00 0.24 0.00 76 1018.0
20260508140048 54 275 0.0 3.0 0.00 0.24 0.00 77 1017.9
20260508135533 53 291 1.0 3.0 0.00 0.25 0.00 79 1018.0
20260508135035 52 0 0.0 0.0 0.00 0.25 0.00 78 1018.0
20260508134545 52 0 0.0 0.0 0.00 0.25 0.00 77 1018.1
20260508134033 51 0 0.0 0.0 0.00 0.25 0.00 81 1018.2
20260508133538 51 0 0.0 0.0 0.00 0.25 0.00 84 1018.4
20260508133102 50 0 0.0 0.0 0.00 0.25 0.00 87 1018.3
20260508132536 50 0 0.0 0.0 0.00 0.25 0.00 88 1018.3
20260508132033 49 0 0.0 0.0 0.00 0.25 0.00 90 1018.3
20260508131546 49 0 0.0 0.0 0.00 0.25 0.00 91 1018.4
20260508131035 48 0 0.0 0.0 0.00 0.25 0.00 93 1018.4
20260508130535 47 0 0.0 0.0 0.00 0.25 0.00 94 1018.4
20260508130048 47 0 0.0 0.0 0.00 0.25 0.00 95 1018.5
20260508125535 46 0 0.0 0.0 0.00 0.26 0.00 95 1018.4
20260508125034 45 0 0.0 0.0 0.00 0.26 0.00 95 1018.4
20260508124545 45 0 0.0 0.0 0.00 0.26 0.00 95 1018.3
20260508124035 45 0 0.0 0.0 0.00 0.26 0.00 95 1018.2
20260508123536 45 0 0.0 0.0 0.00 0.26 0.00 95 1018.2
20260508123049 45 0 0.0 0.0 0.00 0.26 0.00 95 1018.1
20260508122536 44 0 0.0 0.0 0.00 0.26 0.00 95 1018.0
20260508122035 44 0 0.0 0.0 0.00 0.26 0.00 95 1018.1
20260508121545 43 0 0.0 0.0 0.00 0.26 0.00 95 1018.1
20260508121036 43 0 0.0 0.0 0.00 0.26 0.00 95 1017.9
20260508120537 43 0 0.0 0.0 0.00 0.26 0.00 95 1017.8
20260508120053 43 0 0.0 0.0 0.00 0.26 0.00 94 1017.7
20260508115534 43 0 0.0 0.0 0.00 0.27 0.00 94 1017.6
20260508115035 43 0 0.0 0.0 0.00 0.27 0.00 94 1017.5
20260508114545 43 0 0.0 0.0 0.00 0.27 0.00 94 1017.4
20260508114034 42 0 0.0 0.0 0.00 0.27 0.00 95 1017.2
20260508113534 42 0 0.0 0.0 0.00 0.27 0.00 94 1017.2
20260508113054 42 0 0.0 0.0 0.00 0.27 0.00 94 1017.2
20260508112533 42 0 0.0 0.0 0.00 0.27 0.00 94 1017.2
20260508112034 42 0 0.0 0.0 0.00 0.27 0.00 94 1017.0
20260508111549 42 0 0.0 0.0 0.00 0.27 0.00 94 1017.0
20260508111034 42 0 0.0 0.0 0.00 0.27 0.00 94 1016.8
20260508110535 42 0 0.0 0.0 0.00 0.27 0.00 94 1016.8
20260508110051 42 0 0.0 0.0 0.00 0.27 0.00 93 1016.7
20260508105534 42 0 0.0 0.0 0.00 0.28 0.00 93 1016.6
20260508105036 42 0 0.0 0.0 0.00 0.28 0.00 94 1016.3
20260508104548 42 0 0.0 0.0 0.00 0.28 0.00 94 1016.1
20260508104033 42 0 0.0 0.0 0.00 0.28 0.00 94 1015.9
20260508103534 42 0 0.0 0.0 0.00 0.28 0.00 94 1015.8
20260508103045 42 0 0.0 0.0 0.00 0.28 0.00 94 1015.8
20260508102533 42 0 0.0 0.0 0.00 0.28 0.00 94 1015.8
20260508102033 42 0 0.0 0.0 0.00 0.28 0.00 94 1015.7
20260508101547 42 0 0.0 0.0 0.00 0.28 0.00 94 1015.7
20260508101033 42 0 0.0 0.0 0.00 0.28 0.00 94 1015.7
20260508100533 43 0 0.0 0.0 0.00 0.28 0.00 94 1015.7
20260508100048 43 0 0.0 0.0 0.00 0.28 0.00 94 1015.8
20260508095536 43 0 0.0 0.0 0.00 0.29 0.00 94 1015.6
20260508095034 43 0 0.0 0.0 0.00 0.29 0.00 94 1015.6
20260508094545 43 0 0.0 0.0 0.00 0.29 0.00 94 1015.7
20260508094033 43 0 0.0 0.0 0.00 0.29 0.00 94 1015.6
20260508093536 43 0 0.0 0.0 0.00 0.29 0.00 94 1015.5
20260508093046 43 0 0.0 0.0 0.00 0.29 0.00 94 1015.3
20260508092533 43 0 0.0 0.0 0.00 0.29 0.00 93 1015.2
20260508092033 43 0 0.0 0.0 0.00 0.29 0.00 94 1015.2
20260508091610 43 0 0.0 0.0 0.00 0.29 0.00 94 1015.2
20260508091033 43 0 0.0 0.0 0.00 0.29 0.00 94 1015.3
20260508090533 43 0 0.0 0.0 0.00 0.29 0.00 94 1015.2
20260508090039 43 0 0.0 0.0 0.00 0.29 0.00 94 1015.2
20260508085537 44 0 0.0 0.0 0.00 0.31 0.00 94 1015.2
20260508085036 44 0 0.0 0.0 0.00 0.31 0.00 94 1015.3
20260508084549 44 0 0.0 0.0 0.00 0.31 0.00 94 1015.5
20260508084036 44 0 0.0 0.0 0.00 0.31 0.00 94 1015.5
20260508083534 44 0 0.0 0.0 0.00 0.31 0.00 94 1015.4
20260508083045 44 0 0.0 0.0 0.00 0.31 0.00 94 1015.3
20260508082535 44 0 0.0 0.0 0.00 0.31 0.00 94 1015.4
20260508082033 44 0 0.0 0.0 0.00 0.31 0.00 94 1015.3
20260508081546 43 0 0.0 0.0 0.00 0.31 0.00 93 1015.5
20260508081034 44 0 0.0 0.0 0.00 0.31 0.00 93 1015.6
20260508080533 44 0 0.0 0.0 0.00 0.31 0.00 93 1015.5
20260508080055 44 0 0.0 0.0 0.00 0.31 0.00 93 1015.5
20260508075532 44 0 0.0 0.0 0.00 0.32 0.00 93 1015.5
20260508075035 44 0 0.0 0.0 0.00 0.32 0.00 93 1015.5
20260508074546 44 0 0.0 0.0 0.00 0.32 0.00 93 1015.3
20260508074034 44 0 0.0 0.0 0.00 0.32 0.00 93 1015.5
20260508073534 44 0 0.0 0.0 0.00 0.32 0.00 93 1015.5
20260508073052 44 0 0.0 0.0 0.00 0.32 0.00 93 1015.5
20260508072533 44 0 0.0 0.0 0.00 0.32 0.00 93 1015.4
20260508072034 44 0 0.0 0.0 0.00 0.32 0.00 93 1015.2
20260508071545 44 0 0.0 0.0 0.00 0.32 0.00 93 1015.5
20260508071034 44 0 0.0 0.0 0.00 0.32 0.00 93 1015.3
20260508070534 45 0 0.0 0.0 0.00 0.32 0.00 93 1015.2
20260508070049 44 0 0.0 0.0 0.00 0.32 0.00 93 1015.3
20260508065534 44 0 0.0 0.0 0.00 0.34 0.00 93 1015.3
20260508065033 44 0 0.0 0.0 0.00 0.34 0.00 93 1015.3
20260508064550 45 0 0.0 0.0 0.00 0.34 0.00 93 1015.5
20260508064035 45 0 0.0 0.0 0.00 0.34 0.00 93 1015.5
20260508063534 45 0 0.0 0.0 0.00 0.34 0.00 93 1015.5
20260508063120 45 0 0.0 0.0 0.00 0.34 0.00 93 1015.5
20260508062534 45 0 0.0 0.0 0.00 0.34 0.00 93 1015.4
20260508062037 45 0 0.0 0.0 0.00 0.34 0.00 93 1015.3
20260508061552 45 0 0.0 0.0 0.00 0.34 0.00 93 1015.2
20260508061033 45 0 0.0 0.0 0.00 0.34 0.00 93 1015.3
20260508060537 45 0 0.0 0.0 0.00 0.34 0.00 93 1015.3
20260508060049 45 0 0.0 0.0 0.00 0.34 0.00 93 1015.3
20260508055534 46 0 0.0 0.0 0.00 0.36 0.00 93 1015.4
20260508055034 46 0 0.0 0.0 0.00 0.36 0.00 93 1015.3
20260508054549 46 0 0.0 0.0 0.00 0.36 0.00 93 1015.4
20260508054033 46 0 0.0 0.0 0.00 0.36 0.00 93 1015.3
20260508053533 46 0 0.0 0.0 0.00 0.36 0.00 93 1015.3
20260508053058 46 0 0.0 0.0 0.00 0.36 0.00 93 1015.3
20260508052535 46 0 0.0 0.0 0.00 0.36 0.00 93 1015.4
20260508052034 46 0 0.0 0.0 0.00 0.36 0.00 93 1015.4
20260508051609 46 0 0.0 0.0 0.00 0.36 0.00 92 1015.4
20260508051033 46 0 0.0 0.0 0.00 0.36 0.00 92 1015.5
20260508050534 46 0 0.0 0.0 0.00 0.36 0.00 92 1015.3
20260508050043 46 0 0.0 0.0 0.00 0.36 0.00 92 1015.3
20260508045534 46 0 0.0 0.0 0.00 0.38 0.00 92 1015.5
20260508045036 46 0 0.0 0.0 0.00 0.38 0.00 92 1015.4
20260508044540 46 0 0.0 0.0 0.00 0.38 0.00 92 1015.3
20260508044033 46 0 0.0 0.0 0.00 0.38 0.00 92 1015.3
20260508043534 46 0 0.0 0.0 0.00 0.38 0.00 92 1015.2
20260508043045 46 0 0.0 0.0 0.00 0.38 0.00 92 1015.2
20260508042534 47 0 0.0 0.0 0.00 0.38 0.00 92 1015.1
20260508042033 47 0 0.0 0.0 0.00 0.38 0.00 92 1015.1
20260508041546 47 0 0.0 0.0 0.00 0.38 0.00 92 1015.1
20260508041035 47 0 0.0 0.0 0.00 0.38 0.00 92 1015.1
20260508040533 47 0 0.0 0.0 0.00 0.38 0.00 92 1015.1
20260508040048 47 0 0.0 0.0 0.00 0.38 0.00 92 1015.1
20260508035533 47 0 0.0 0.0 0.00 0.41 0.38 91 1015.2
20260508035034 47 0 0.0 0.0 0.00 0.41 0.38 91 1015.2
20260508034549 47 0 0.0 0.0 0.00 0.41 0.38 92 1015.0
20260508034034 48 0 0.0 0.0 0.00 0.41 0.38 91 1015.1